Location: Dentlein
(49.1477°N, 10.4231°E)
Time: 03:38:58
(UTC+00:00)

Cosmos 1825 - Pass Details

Date: 16 August 2024
Orbit: 422 x 426 km, 82.5° (Epoch: 09 September)

Event Time Altitude Azimuth Distance (km) Brightness Sun altitude
Rises 02:25:19 0° 345° (NNW) 2,404 6.0 -15.4°
Reaches altitude 10° 02:27:25 10° 340° (NNW) 1,529 4.9 -15.2°
Maximum altitude 02:30:38 49° 265° (W) 562 2.0 -14.8°
Enters shadow 02:31:55 30° 207° (SSW) 797 2.6 -14.7°
